DW9918 Weather Reports


Display with metric or nautical units.
time (UTC)temp
F
wind
direction
speed
MPH
gust
MPH
rain 1hr
in
rain 24hr
in
rain mn
in
humidity
%
barometer
mb
20260508193135 63 259 0.0 3.0 0.00 0.00 0.00 83 1016.7
20260508193014 62 148 0.0 3.0 0.00 0.00 0.00 82 1016.3
20260508192138 63 95 2.0 3.0 0.00 0.00 0.00 82 1016.3
20260508191515 62 115 0.0 2.0 0.00 0.00 0.00 82 1016.1
20260508191131 63 159 0.0 2.0 0.00 0.00 0.00 82 1016.3
20260508190134 63 105 0.0 2.0 0.00 0.00 0.00 83 1016.2
20260508190009 62 101 1.0 2.0 0.00 0.00 0.00 83 1015.9
20260508185136 63 109 0.0 2.0 0.00 0.00 0.00 83 1016.1
20260508184508 63 112 0.0 2.0 0.00 0.00 0.00 82 1015.7
20260508184136 64 123 0.0 1.0 0.00 0.00 0.00 83 1016.0
20260508183142 64 143 0.0 1.0 0.00 0.00 0.00 82 1015.9
20260508183004 64 143 0.0 1.0 0.00 0.00 0.00 81 1015.6
20260508182130 65 152 0.0 1.0 0.00 0.00 0.00 81 1015.9
20260508181513 64 142 0.0 2.0 0.00 0.00 0.00 80 1015.5
20260508181137 65 102 0.0 2.0 0.00 0.00 0.00 81 1015.8
20260508180130 65 130 1.0 2.0 0.00 0.00 0.00 81 1015.6
20260508180024 64 105 0.0 2.0 0.00 0.00 0.00 81 1015.3
20260508175143 64 108 1.0 4.0 0.00 0.00 0.00 81 1015.6
20260508174516 64 98 1.0 4.0 0.00 0.00 0.00 80 1015.3
20260508174135 65 143 1.0 3.0 0.00 0.00 0.00 81 1015.6
20260508173134 65 117 1.0 4.0 0.00 0.00 0.00 80 1015.6
20260508173012 64 158 1.0 4.0 0.00 0.00 0.00 79 1015.2
20260508172139 65 153 1.0 3.0 0.00 0.00 0.00 80 1015.6
20260508171513 64 157 1.0 3.0 0.00 0.00 0.00 79 1015.2
20260508171130 65 139 1.0 3.0 0.00 0.00 0.00 79 1015.5
20260508170131 65 152 1.0 4.0 0.00 0.00 0.00 78 1015.5
20260508170007 65 105 1.0 6.0 0.00 0.00 0.00 79 1015.2
20260508165135 65 91 3.0 6.0 0.00 0.00 0.00 78 1015.5
20260508164520 65 110 3.0 5.0 0.00 0.00 0.00 79 1015.2
20260508164133 65 136 2.0 6.0 0.00 0.00 0.00 79 1015.5
20260508163138 65 96 4.0 5.0 0.00 0.00 0.00 79 1015.5
20260508163021 64 91 4.0 6.0 0.00 0.00 0.00 78 1015.1
20260508162126 65 96 5.0 6.0 0.00 0.00 0.00 78 1015.4
20260508161517 64 84 4.0 6.0 0.00 0.00 0.00 78 1015.1
20260508161138 65 88 4.0 5.0 0.00 0.00 0.00 78 1015.4
20260508160134 65 101 5.0 6.0 0.00 0.00 0.00 77 1015.4
20260508160028 65 97 4.0 6.0 0.00 0.00 0.00 78 1015.1
20260508155135 65 89 4.0 6.0 0.00 0.00 0.00 79 1015.4
20260508154514 64 97 4.0 6.0 0.00 0.00 0.00 78 1015.1
20260508154150 65 78 5.0 6.0 0.00 0.00 0.00 79 1015.4
20260508153129 65 87 5.0 7.0 0.00 0.00 0.00 79 1015.5
20260508153033 65 103 4.0 7.0 0.00 0.00 0.00 78 1015.2
20260508152132 65 96 2.0 6.0 0.00 0.00 0.00 80 1015.5
20260508151524 65 82 5.0 7.0 0.00 0.00 0.00 78 1015.2
20260508151140 65 88 4.0 7.0 0.00 0.00 0.00 79 1015.5
20260508150131 65 91 5.0 6.0 0.00 0.00 0.00 79 1015.5
20260508150027 65 95 4.0 6.0 0.00 0.00 0.00 78 1015.2
20260508145138 65 90 3.0 7.0 0.00 0.00 0.00 78 1015.5
20260508144522 65 103 5.0 7.0 0.00 0.00 0.00 78 1015.2
20260508144131 65 59 4.0 6.0 0.00 0.00 0.00 78 1015.6
20260508143127 65 71 4.0 7.0 0.00 0.00 0.00 78 1015.6
20260508143027 65 82 4.0 7.0 0.00 0.00 0.00 77 1015.3
20260508142128 66 98 3.0 6.0 0.00 0.00 0.00 77 1015.7
20260508141518 65 84 4.0 6.0 0.00 0.00 0.00 77 1015.3
20260508141133 66 49 4.0 6.0 0.00 0.00 0.00 78 1015.7
20260508140142 66 96 4.0 7.0 0.00 0.00 0.00 79 1015.7
20260508140017 65 89 3.0 7.0 0.00 0.00 0.00 78 1015.4
20260508135156 66 84 3.0 8.0 0.00 0.00 0.00 78 1015.8
20260508134530 65 79 5.0 9.0 0.00 0.00 0.00 77 1015.5
20260508134140 66 86 5.0 9.0 0.00 0.00 0.00 78 1015.7
20260508133141 66 84 4.0 8.0 0.00 0.00 0.00 77 1015.8
20260508133015 66 49 4.0 8.0 0.00 0.00 0.00 75 1015.5
20260508132153 66 83 6.0 8.0 0.00 0.00 0.00 76 1016.0
20260508131505 65 85 5.0 9.0 0.00 0.00 0.00 75 1015.6
20260508131133 66 89 5.0 9.0 0.00 0.00 0.00 76 1016.0
20260508130128 66 77 4.0 9.0 0.00 0.00 0.00 77 1016.0
20260508130004 66 35 4.0 9.0 0.00 0.00 0.00 76 1015.6
20260508125202 66 79 7.0 9.0 0.00 0.00 0.00 75 1015.9
20260508124508 66 62 6.0 10.0 0.00 0.00 0.00 73 1015.6
20260508124130 66 89 6.0 9.0 0.00 0.00 0.00 75 1016.0
20260508123129 66 89 5.0 12.0 0.00 0.00 0.00 73 1016.1
20260508123018 66 49 6.0 12.0 0.00 0.00 0.00 73 1015.7
20260508122128 66 84 7.0 12.0 0.00 0.00 0.00 74 1016.1
20260508121541 66 88 5.0 11.0 0.00 0.00 0.00 74 1015.7
20260508121155 67 86 8.0 11.0 0.00 0.00 0.00 75 1016.1
20260508120136 67 17 6.0 9.0 0.00 0.00 0.00 73 1016.1
20260508120010 67 34 4.0 8.0 0.00 0.00 0.00 75 1015.7
20260508115132 66 82 7.0 10.0 0.00 0.00 0.00 76 1016.2
20260508114506 65 85 5.0 10.0 0.00 0.00 0.00 75 1015.8
20260508114142 66 88 7.0 10.0 0.00 0.00 0.00 76 1016.3
20260508113143 66 95 7.0 13.0 0.00 0.00 0.00 77 1016.3
20260508113005 66 86 7.0 13.0 0.00 0.00 0.00 75 1015.8
20260508112152 66 82 7.0 12.0 0.00 0.00 0.00 79 1016.2
20260508111522 65 96 7.0 11.0 0.00 0.00 0.00 76 1015.8
20260508111137 66 91 8.0 11.0 0.00 0.00 0.00 76 1016.3
20260508110138 67 86 9.0 11.0 0.00 0.00 0.00 78 1016.3
20260508110017 66 79 8.0 11.0 0.00 0.00 0.00 77 1015.9
20260508105132 66 93 5.0 9.0 0.00 0.00 0.00 77 1016.4
20260508104515 65 32 6.0 12.0 0.00 0.00 0.00 78 1015.9
20260508104141 66 92 6.0 12.0 0.00 0.00 0.00 77 1016.4
20260508103135 66 92 7.0 11.0 0.00 0.00 0.00 78 1016.4
20260508103015 65 86 9.0 11.0 0.00 0.00 0.00 78 1015.9
20260508102143 66 77 8.0 12.0 0.00 0.00 0.00 78 1016.4
20260508101509 66 70 8.0 12.0 0.00 0.00 0.00 78 1015.9
20260508101130 66 97 5.0 10.0 0.00 0.00 0.00 77 1016.4
20260508100132 66 81 7.0 12.0 0.00 0.00 0.00 78 1016.3
20260508100004 65 96 8.0 12.0 0.00 0.00 0.00 76 1015.9
20260508095138 66 94 6.0 13.0 0.00 0.00 0.00 76 1016.5
20260508094528 65 98 8.0 11.0 0.00 0.00 0.00 77 1016.0
20260508094146 66 82 6.0 10.0 0.00 0.00 0.00 77 1016.5
20260508093131 65 49 5.0 10.0 0.00 0.00 0.00 79 1016.4
20260508093023 65 46 4.0 10.0 0.00 0.00 0.00 79 1016.0
20260508092131 66 90 5.0 10.0 0.00 0.00 0.00 79 1016.4
20260508091517 65 86 5.0 10.0 0.00 0.00 0.00 79 1015.9
20260508091143 66 86 6.0 10.0 0.00 0.00 0.00 79 1016.5
20260508090128 65 98 6.0 9.0 0.00 0.00 0.00 79 1016.6
20260508090017 65 87 6.0 9.0 0.00 0.00 0.00 78 1016.0
20260508085142 66 41 5.0 12.0 0.00 0.00 0.00 79 1016.5
20260508084510 65 96 7.0 13.0 0.00 0.00 0.00 80 1015.9
20260508084137 65 44 7.0 13.0 0.00 0.00 0.00 81 1016.3
20260508083139 66 82 6.0 12.0 0.00 0.00 0.00 78 1016.4
20260508083030 65 88 5.0 12.0 0.00 0.00 0.00 78 1015.9
20260508082124 65 56 6.0 11.0 0.00 0.00 0.00 80 1016.4
20260508081528 64 70 5.0 10.0 0.00 0.00 0.00 81 1015.9
20260508081133 65 82 8.0 10.0 0.00 0.00 0.00 82 1016.4
20260508080132 65 91 3.0 10.0 0.00 0.00 0.00 83 1016.3
20260508080024 64 75 5.0 10.0 0.00 0.00 0.00 83 1015.8
20260508075146 64 89 5.0 8.0 0.00 0.00 0.00 82 1016.3
20260508074525 64 92 5.0 9.0 0.00 0.00 0.00 82 1015.8
20260508074130 65 86 7.0 9.0 0.00 0.00 0.00 81 1016.2
20260508073134 64 36 5.0 9.0 0.00 0.00 0.00 84 1016.1
20260508073023 64 88 6.0 9.0 0.00 0.00 0.00 84 1015.7
20260508072129 64 90 6.0 9.0 0.00 0.00 0.00 84 1016.0
20260508071514 63 117 6.0 9.0 0.00 0.00 0.00 85 1015.6
20260508071140 64 60 5.0 9.0 0.00 0.00 0.00 86 1016.0
20260508070124 63 81 7.0 9.0 0.00 0.00 0.00 85 1015.9
20260508070013 63 80 7.0 9.0 0.00 0.00 0.00 86 1015.5
20260508065129 63 69 5.0 9.0 0.00 0.00 0.00 86 1015.9
20260508064544 63 77 5.0 9.0 0.00 0.00 0.00 85 1015.4
20260508064135 63 73 5.0 9.0 0.00 0.00 0.00 87 1015.8
20260508063132 63 91 6.0 10.0 0.00 0.00 0.00 88 1015.8
20260508063028 62 75 6.0 10.0 0.00 0.00 0.00 88 1015.4
20260508062157 62 93 4.0 7.0 0.00 0.00 0.00 93 1015.6
20260508061526 61 77 0.0 2.0 0.00 0.00 0.00 94 1015.2
20260508061130 61 77 0.0 2.0 0.00 0.00 0.00 95 1015.5
20260508060125 61 287 0.0 0.0 0.00 0.00 0.00 95 1015.5
20260508060024 60 287 0.0 0.0 0.00 0.00 0.00 94 1015.1
20260508055131 59 287 0.0 0.0 0.00 0.00 0.00 95 1015.3
20260508054520 58 287 0.0 0.0 0.00 0.00 0.00 94 1015.1
20260508054134 58 287 0.0 0.0 0.00 0.00 0.00 95 1015.4
20260508053142 57 287 0.0 2.0 0.00 0.00 0.00 94 1015.3
20260508053016 56 289 0.0 2.0 0.00 0.00 0.00 94 1015.1
20260508052135 56 250 0.0 0.0 0.00 0.00 0.00 94 1015.3
20260508051529 55 272 0.0 2.0 0.00 0.00 0.00 93 1015.0
20260508051133 56 270 1.0 2.0 0.00 0.00 0.00 94 1015.1
20260508050138 55 217 2.0 2.0 0.00 0.00 0.00 93 1015.1
20260508050030 55 230 1.0 2.0 0.00 0.00 0.00 93 1014.8
20260508045153 55 229 2.0 3.0 0.00 0.00 0.00 93 1015.0
20260508044526 55 243 0.0 2.0 0.00 0.00 0.00 92 1014.6
20260508044150 56 262 1.0 2.0 0.00 0.00 0.00 93 1014.8
20260508043134 56 241 0.0 2.0 0.00 0.00 0.00 92 1014.8
20260508043027 55 241 0.0 2.0 0.00 0.00 0.00 92 1014.5
20260508042123 57 231 2.0 2.0 0.00 0.00 0.00 92 1014.6
20260508041520 56 224 0.0 1.0 0.00 0.00 0.00 90 1014.4
20260508041124 57 223 0.0 1.0 0.00 0.00 0.00 90 1014.6
20260508040128 59 116 0.0 1.0 0.00 0.00 0.00 93 1014.5
20260508040016 58 257 0.0 0.0 0.00 0.00 0.00 92 1014.2
20260508035131 59 277 0.0 1.0 0.00 0.00 0.00 93 1014.4
20260508034512 58 277 0.0 3.0 0.00 0.00 0.00 92 1014.1
20260508034211 58 278 1.0 3.0 0.00 0.00 0.00 90 1014.4
20260508033124 60 91 0.0 2.0 0.00 0.00 0.00 91 1014.3
20260508033015 60 91 0.0 2.0 0.00 0.00 0.00 91 1014.0
20260508031507 60 101 0.0 3.0 0.00 0.00 0.00 91 1014.0
20260508031133 61 101 0.0 6.0 0.00 0.00 0.00 91 1014.4
20260508030141 61 93 4.0 6.0 0.00 0.00 0.00 91 1014.4
20260508030007 60 103 4.0 6.0 0.00 0.00 0.00 90 1014.1
20260508025125 61 82 4.0 6.0 0.00 0.00 0.00 91 1014.4
20260508024528 60 88 4.0 6.0 0.00 0.00 0.00 91 1014.0
20260508024140 61 94 5.0 7.0 0.00 0.00 0.00 92 1014.4
20260508023152 61 93 5.0 8.0 0.00 0.00 0.00 92 1014.4
20260508023032 60 94 5.0 8.0 0.00 0.00 0.00 92 1014.0
20260508022130 61 91 3.0 5.0 0.00 0.00 0.00 92 1014.3
20260508021517 60 89 4.0 5.0 0.00 0.00 0.00 91 1014.0
20260508021135 61 100 4.0 5.0 0.00 0.00 0.00 92 1014.4
20260508020150 61 89 4.0 8.0 0.00 0.00 0.00 92 1014.4
20260508020016 60 88 5.0 8.0 0.00 0.00 0.00 91 1014.0
20260508015147 61 88 3.0 5.0 0.00 0.00 0.00 91 1014.5
20260508014511 61 86 3.0 5.0 0.00 0.00 0.00 90 1014.0
20260508014203 61 84 3.0 7.0 0.00 0.00 0.00 91 1014.5
20260508013154 61 94 5.0 7.0 0.00 0.00 0.00 92 1014.4
20260508013006 61 95 4.0 6.0 0.00 0.00 0.00 91 1014.1
20260508012137 61 105 3.0 5.0 0.00 0.00 0.00 91 1014.4
20260508011535 61 96 4.0 7.0 0.00 0.00 0.00 90 1014.1
20260508011144 61 93 6.0 7.0 0.00 0.00 0.00 91 1014.4
20260508010138 61 96 4.0 6.0 0.00 0.00 0.00 91 1014.4
20260508010030 60 96 4.0 6.0 0.00 0.00 0.00 90 1014.0
20260508005134 61 97 3.0 6.0 0.00 0.00 0.00 90 1014.5
20260508004519 60 107 3.0 6.0 0.00 0.00 0.00 90 1014.2
20260508004140 61 91 4.0 6.0 0.00 0.00 0.00 90 1014.5
20260508003137 61 89 0.0 2.0 0.00 0.00 0.00 88 1014.6
20260508003017 61 45 0.0 2.0 0.00 0.00 0.00 88 1014.2
20260508002130 61 77 1.0 3.0 0.00 0.00 0.00 88 1014.7
20260508001513 61 86 1.0 4.0 0.00 0.00 0.00 86 1014.3
20260508001157 62 84 3.0 4.0 0.00 0.00 0.00 87 1014.6
20260508000156 62 94 3.0 5.0 0.00 0.00 0.00 87 1014.6
20260507235134 62 99 4.0 7.0 0.00 0.00 0.00 88 1014.7
20260507234529 61 114 3.0 5.0 0.00 0.00 0.00 88 1014.3
20260507234145 62 101 3.0 5.0 0.00 0.00 0.00 88 1014.7
20260507233128 62 91 3.0 7.0 0.00 0.00 0.00 88 1014.8
20260507233026 61 102 4.0 9.0 0.00 0.00 0.00 88 1014.5
20260507232206 62 99 4.0 8.0 0.00 0.24 0.00 88 1014.8
20260507231524 62 102 5.0 7.0 0.00 0.00 0.00 88 1014.4
20260507231131 62 98 5.0 6.0 0.00 0.24 0.00 89 1014.8
20260507230128 62 105 5.0 7.0 0.00 0.24 0.00 89 1014.8
20260507230022 62 107 5.0 7.0 0.00 0.00 0.00 88 1014.4
20260507225131 62 105 6.0 10.0 0.00 0.24 0.00 89 1014.8
20260507224518 62 101 6.0 10.0 0.00 0.02 0.00 88 1014.4
20260507224203 62 100 6.0 8.0 0.00 0.24 0.00 89 1014.8
20260507223016 61 91 5.0 6.0 0.00 0.03 0.00 89 1014.3
20260507222129 62 103 5.0 7.0 0.00 0.31 0.00 89 1014.7
20260507221528 61 105 4.0 7.0 0.00 0.05 0.00 89 1014.3
20260507221123 62 96 4.0 5.0 0.00 0.31 0.00 90 1014.7
20260507220131 62 90 3.0 5.0 0.00 0.31 0.00 89 1014.7
20260507220028 61 92 3.0 6.0 0.00 0.06 0.00 89 1014.3
20260507215129 62 102 5.0 7.0 0.00 0.31 0.00 89 1014.6
20260507214524 61 91 5.0 7.0 0.00 0.06 0.06 88 1014.1
20260507214136 62 94 5.0 6.0 0.00 0.31 0.00 88 1014.5
20260507213138 62 85 4.0 5.0 0.00 0.31 0.00 87 1014.5
20260507213029 62 88 4.0 5.0 0.00 0.06 0.06 87 1014.1
20260507212138 62 85 4.0 7.0 0.00 0.31 0.00 87 1014.5
20260507211522 61 90 4.0 5.0 0.00 0.06 0.06 87 1014.1
20260507211130 62 98 4.0 5.0 0.00 0.31 0.00 87 1014.6
20260507210123 62 95 5.0 6.0 0.00 0.31 0.00 87 1014.6
20260507210017 61 115 5.0 6.0 0.00 0.06 0.06 86 1014.3
20260507205131 62 96 4.0 5.0 0.00 0.31 0.00 86 1014.7
20260507204514 61 91 4.0 6.0 0.00 0.06 0.06 86 1014.3
20260507204154 62 99 4.0 6.0 0.00 0.31 0.00 86 1014.7
20260507203129 62 98 4.0 5.0 0.00 0.31 0.00 86 1014.7
20260507203008 61 107 4.0 6.0 0.00 0.06 0.06 86 1014.3
20260507202126 62 102 4.0 6.0 0.00 0.31 0.00 86 1014.6
20260507201508 61 101 4.0 7.0 0.00 0.06 0.06 85 1014.4
20260507201133 62 79 4.0 7.0 0.00 0.31 0.00 86 1014.7
20260507200136 62 105 5.0 7.0 0.00 0.31 0.00 86 1014.8
20260507200012 61 110 5.0 7.0 0.00 0.06 0.06 85 1014.4
20260507195123 62 115 5.0 7.0 0.00 0.31 0.00 85 1014.6
20260507194524 62 107 5.0 9.0 0.00 0.06 0.06 84 1014.3
20260507194122 63 85 6.0 10.0 0.00 0.31 0.00 85 1014.6